Location: ČR
(50.0000°N, 15.0000°E)
Time: 15:01:48
(UTC+00:00)

Explorer 7 - Pass Details

Date: 27 October 2021
Orbit: 483 x 675 km, 50.3° (Epoch: 27 November)

Event Time Altitude Azimuth Distance (km) Brightness Sun altitude
Rises 22:43:54 0° 281° (W) 2,736 - -53.1°
Reaches altitude 10° 22:46:05 10° 280° (W) 1,871 - -53.1°
Maximum altitude 22:50:22 80° 194° (SSW) 609 - -53.1°
Drops below altitude 10° 22:54:56 10° 108° (ESE) 1,991 - -53.0°
Sets 22:57:19 0° 107° (ESE) 2,926 - -53.0°
